Home > Weather > Bursa > Past weeks

Flag for Turkey Weather for the Past 2 Weeks in Bursa, Turkey

Now
58 °F

Scattered clouds.


Feels Like: 58 °F
Forecast: 49 / 59 °F
Wind: 5 mph from East

Location: Bursa

Current Time: Feb 10, 2016 at 3:04:21 PM

Latest Report: Feb 10, 2016 at 2:00 PM


Visibility: 7 mi

Pressure: 29.96 "Hg

Humidity: 43%

Dew point: 36 °F

Location of BursaLocation

Historic Weather in Bursa — Graph

°F

Bursa Temperature Yesterday

Maximum temperature yesterday: 45 °F (at 6:00 PM)
Minimum temperature yesterday: 28 °F (at 8:00 AM)
Average temperature yesterday: 36 °F

High & Low Weather Summary for the Past Weeks

 TemperatureHumidityPressure
High71 °F (Feb 3, 4:00 PM)99% (Jan 26, 11:00 PM)30.55 "Hg (Jan 26, 11:00 PM)
Low28 °F (Feb 8, 7:00 AM)32% (Feb 4, 11:00 AM)29.77 "Hg (Feb 5, 3:00 PM)
Average46 °F75%30.28 "Hg
* Reported Jan 26 1:00 PM — Feb 10 1:00 PM, Bursa, Weather by CustomWeather, © 2016

Note: Actual official high and low records may vary slightly from our data, if they occured in-between our weather recording intervals... More about our weather records

Advertising

Bursa Weather History for the Previous 24 Hours

 ConditionsComfort  
Time TempWeatherWind HumidityBarometerVisibility
1:00 PM
Wed, Feb 10
57 °FScattered clouds.5 mph46%29.99 "Hg7 mi
12:00 PM55 °FScattered clouds.7 mph48%30.00 "Hg7 mi
11:00 AM51 °FSunny.9 mph52%30.02 "Hg7 mi
10:00 AM47 °FSunny.6 mph65%30.05 "Hg6 mi
9:00 AM42 °FSunny.5 mph77%30.10 "Hg6 mi
8:00 AM38 °FSunny.5 mph81%30.10 "Hg6 mi
7:00 AM35 °FClear.3 mph89%30.11 "Hg6 mi
6:00 AM32 °FClear.5 mph98%30.11 "Hg6 mi
5:00 AM31 °FClear.1 mph93%30.12 "Hg6 mi
4:00 AM31 °FClear.3 mph97%30.13 "Hg6 mi
1:00 AM34 °FClear.3 mph93%30.19 "Hg6 mi
11:00 PM
Tue, Feb 9
35 °FClear.1 mph93%30.21 "Hg6 mi
10:00 PM35 °FClear.No wind87%30.22 "Hg6 mi
9:00 PM37 °FClear.1 mph88%30.22 "Hg6 mi
8:00 PM40 °FClear.1 mph78%30.23 "Hg6 mi
7:00 PM41 °FClear.No wind82%30.22 "Hg6 mi
6:00 PM45 °FClear.1 mph71%30.23 "Hg7 mi
Weather by CustomWeather, © 2016

See weather overviewHow to use our weather pages